Change the Weather History Date:

Monday, July 8, 2013

  Actual Average (KDEN) Record (KDEN)
Temperature  
Mean Temperature 80 °F 74 °F  
Max Temperature 95 °F 89 °F 103 °F (1989)
Min Temperature 64 °F 58 °F 45 °F (1952)
Degree Days  
Heating Degree Days 0 0  
Month to date heating degree days 1  
Since 1 June heating degree days 63  
Since 1 July heating degree days 1  
Cooling Degree Days 14 9  
Month to date cooling degree days 65  
Year to date cooling degree days 220  
Since 1 June cooling degree days 198  
Growing Degree Days 30 (Base 50)    
Moisture  
Dew Point 48 °F    
Average Humidity 44    
Maximum Humidity 60    
Minimum Humidity 14    
Precipitation  
Precipitation 0.00 in 0.06 in 0.93 in (1909)
Month to date precipitation 0.45  
Year to date precipitation 7.96  
Snow  
Snow 0.00 in - - ()
Month to date snowfall  
Since 1 June snowfall  
Since 1 July snowfall  
Snow Depth -    
Sea Level Pressure  
Sea Level Pressure 30.14 in    
Wind  
Wind Speed 6 mph (SSW)    
Max Wind Speed 13 mph    
Max Gust Speed 17 mph    
Visibility 10 miles    
Events      
T = Trace of Precipitation, MM = Missing Value Source: NWS Daily Summary

Daily Weather History Graph

Daily Weather History Graph

Search for Another Location

Airport or City:

Trip Planner

Search our weather history database for the weather conditions in past years. The results will help you decide how hot, cold, wet, or windy it might be!

Date:

Astronomy

Jul. 08, 2013 Rise Set
Actual Time 5:37 AM MDT 8:28 PM MDT
Civil Twilight 5:05 AM MDT 9:00 PM MDT
Nautical Twilight 4:25 AM MDT 9:40 PM MDT
Astronomical Twilight 3:38 AM MDT 10:27 PM MDT
Moon 6:09 AM MDT (7/8) 8:32 PM MDT (7/8)
Length of Visible Light 15h 54m
Length of Day
14h 50m
New Moon, 0% of the Moon is Illuminated
Jul 8
New Moon
Jul 15
First Quarter
Jul 22
Full
Jul 29
Last Quarter
Aug 6
New

Hourly Weather History & Observations

Time (MDT) Temp. Dew Point Humidity Pressure Visibility Wind Dir Wind Speed Gust Speed Precip Events Conditions
12:16 AM 71.6 °F 50.0 °F 46% 30.15 in 10.0 mi South 5.8 mph - N/A   Clear
12:36 AM 69.8 °F 50.0 °F 49% 30.16 in 10.0 mi Calm Calm - N/A   Clear
12:56 AM 69.8 °F 50.0 °F 49% 30.15 in 10.0 mi South 5.8 mph - N/A   Clear
1:16 AM 69.8 °F 50.0 °F 49% 30.15 in 10.0 mi SW 5.8 mph - N/A   Clear
1:36 AM 68.0 °F 50.0 °F 52% 30.14 in 10.0 mi WSW 5.8 mph - N/A   Clear
1:55 AM 66.2 °F 50.0 °F 56% 30.14 in 10.0 mi Calm Calm - N/A   Clear
2:16 AM 64.4 °F 50.0 °F 59% 30.15 in 10.0 mi South 3.5 mph - N/A   Clear
2:36 AM 64.4 °F 50.0 °F 59% 30.14 in 10.0 mi SSE 5.8 mph - N/A   Clear
2:56 AM 64.4 °F 50.0 °F 59% 30.14 in 10.0 mi SSE 9.2 mph - N/A   Clear
3:16 AM 69.8 °F 51.8 °F 53% 30.14 in 10.0 mi South 9.2 mph - N/A   Clear
3:36 AM 69.8 °F 51.8 °F 53% 30.14 in 10.0 mi SSW 11.5 mph - N/A   Clear
3:56 AM 71.6 °F 50.0 °F 46% 30.14 in 10.0 mi SW 12.7 mph 17.3 mph N/A   Clear
4:16 AM 71.6 °F 48.2 °F 43% 30.14 in 10.0 mi WSW 12.7 mph - N/A   Clear
4:36 AM 68.0 °F 50.0 °F 52% 30.12 in 10.0 mi WNW 5.8 mph - N/A   Clear
4:55 AM 66.2 °F 51.8 °F 60% 30.12 in 10.0 mi West 6.9 mph - N/A   Clear
5:16 AM 66.2 °F 51.8 °F 60% 30.12 in 10.0 mi WSW 5.8 mph - N/A   Clear
5:36 AM 68.0 °F 51.8 °F 56% 30.12 in 10.0 mi SW 4.6 mph - N/A   Clear
5:56 AM 69.8 °F 50.0 °F 49% 30.11 in 10.0 mi SW 6.9 mph - N/A   Clear
6:16 AM 68.0 °F 50.0 °F 52% 30.12 in 10.0 mi WSW 6.9 mph - N/A   Clear
6:36 AM 71.6 °F 50.0 °F 46% 30.12 in 10.0 mi SW 10.4 mph - N/A   Clear
6:51 AM 71.6 °F 50.0 °F 46% 30.12 in 10.0 mi WSW 11.5 mph - N/A   Clear
7:47 AM 75.2 °F 50.0 °F 41% 30.15 in 50.0 mi SSW 12.7 mph - N/A   Partly Cloudy
9:57 AM 86.0 °F 44.6 °F 23% 30.16 in 50.0 mi NW 8.1 mph - N/A   Scattered Clouds
10:47 AM 87.8 °F 44.6 °F 22% 30.16 in 50.0 mi North 6.9 mph - N/A   Scattered Clouds
3:56 PM 95.0 °F 39.2 °F 14% 30.10 in 50.0 mi East 11.5 mph 17.3 mph N/A   Mostly Cloudy
9:16 PM 78.8 °F 44.6 °F 30% 30.15 in 10.0 mi ENE 3.5 mph - N/A   Clear
9:36 PM 78.8 °F 44.6 °F 30% 30.16 in 10.0 mi NE 3.5 mph - N/A   Clear
9:55 PM 75.2 °F 42.8 °F 31% 30.16 in 10.0 mi Calm Calm - N/A   Clear
10:14 PM 71.6 °F 42.8 °F 35% 30.16 in 10.0 mi SSE 5.8 mph - N/A   Clear
10:35 PM 73.4 °F 44.6 °F 36% 30.17 in 10.0 mi SSE 5.8 mph - N/A   Clear
10:55 PM 75.2 °F 44.6 °F 34% 30.17 in 10.0 mi South 3.5 mph - N/A   Clear
11:15 PM 73.4 °F 44.6 °F 36% 30.18 in 10.0 mi South 4.6 mph - N/A   Scattered Clouds
11:36 PM 73.4 °F 46.4 °F 38% 30.18 in 10.0 mi South 4.6 mph - N/A   Mostly Cloudy
11:56 PM 73.4 °F 44.6 °F 36% 30.18 in 10.0 mi South 5.8 mph - N/A   Overcast